Location: ???? ???? ?????
(31.2680°N, 31.7283°E)
Time: 08:52:32
(UTC+00:00)

Cosmos 2344 - Pass Details

Date: 13 July 2020
Orbit: 1249 x 2993 km, 63.3° (Epoch: 07 August)

Event Time Altitude Azimuth Distance (km) Brightness Sun altitude
Rises 18:32:42 0° 200° (SSW) 4,558 6.3 -17.6°
Reaches altitude 10° 18:35:46 10° 197° (SSW) 3,440 5.6 -18.1°
Maximum altitude 18:43:36 68° 116° (ESE) 1,338 3.4 -19.3°
Drops below altitude 10° 18:51:03 10° 35° (NE) 3,278 5.8 -20.5°
Sets 18:53:54 0° 33° (NNE) 4,329 6.5 -20.9°
